星链-31320 (STARLINK-31320 )

导读

STARLINK-31320是美国于北京时间2024年1月29日8时发射的星链卫星,隶属于SpaceX星链互联网星座项目。星链项目旨在构建全球卫星互联网,该卫星入轨后将补充星座组网能力,为全球偏远地区、海洋、空中等场景提供低延迟宽带互联网接入服务。

Basic Information
目录编号:
58886
目录名称:
STARLINK-31320
国际标识:
2024-020L
轨道中心:
EARTH
卫星名称:
星链-31320
卫星全名:
星链-31320 (STARLINK-31320 )
卫星状态:
在轨 (已飞行871 天)
发射日期:
2024-01-29 UTC
国别 :
美国 (US)
星等 :
--
Orbit Information
数据来源 国际轨道数据 AOE轨道数据
星历时间 2026-06-17T18:47:13+0800
21小时前
查看轨道信息
2026-06-17T15:00:00+0800
1天前
查看轨道信息
半长轴 6840.814km 6840.818km
偏心率 0.0001486 0.0001141
轨道倾角 53.160° 53.158°
近地点辐角 77.032° 81.171°
升交点赤经 217.715° 218.450°
平近点角 283.085° 126.823°
近地点 461.66km 461.9km
远地点 463.694km 463.462km
周期 93.847分钟 93.847分钟
每日圈数 15.344091 15.344075
Detailed Information
固有亮度:
5
最大亮度:
0.3
卫星平台:
Starlink v2.0 mini
覆盖范围:
全球
运营商:
太空探索技术公司
运营商所在国:
美国
制造商(研发单位):
太空探索技术公司
制造商所在国:
美国
使用方式:
暂无
Satellite Introduction
星链(Starlink)计划是由太空探索技术公司(SpaceX)提出的一个巨型低轨卫星互联网星座项目,计划在2019年至2024年间在太空搭建由约1.2万颗卫星组成的“星链”网络,其中1584颗将部署在地球上空550千米处的近地轨道,并从2020年开始工作。该卫星仍在工作。
2D Orbit Map
3D Orbit Map
Orbit Altitude Analysis Chart
Orbit Inclination Analysis Chart
Orbit Comprehensive Analysis Chart
View Comprehensive Chart